Погода в Злихе

Погода в Злихе : погода сейчас, прогноз погоды и архив. Всё, что Вы хотите узнать о погоде в Злихе!

Поиск расширенной информации на нашем сайте:

Другие новости

Новости СМИ2

Главная страница сайта

Новости сайта

02.10.2013

Напоминаем, что на нашем новом сайте вы можете получить высокодетализированные прогнозы погоды по пунктам России, СНГ и мира (включающие важные для авиации метеовеличины, такие как направление и скорость ветра, видимость, явления погоды, количество и форма облачности, нижняя и верхняя граница облачности), а также ознакомиться с разнообразными материалами по авиационной метеорологии и подборкой полезных ссылок на эту тему.

Сайт Метеоцентр.Азия посвящён разработке технологий оптимизации авиаметеорологического обслуживания, включая проектирование и перспективное создание нескольких автоматизированных авиаметеорологических систем:
- система выпуска высокодетальных прогностических карт явлений погоды для нижнего воздушного пространства по России и ближнему зарубежью;
- система верификации прогнозов TAF (выпускаемых синоптиками официальных АМСГ РФ и ближнего зарубежья) и AUTOTAF (выпускаемых сайтом Метеоцентр.Азия) - выявление ошибок, онлайн-сопоставление с фактической погодой METAR, автоматическое внесение коррективов в прогнозы при резком отклонении фактической погоды от прогноза, подсчёт оправдываемости прогнозов по элементам и в целом;
- система обработки, анализа и отображения авиаметеорологической информации для применения провайдерами метеорологической информации.


Погода в Злихе - сегодня

Время (UTC), дата Ветер
(°,м/с) 
Видим.   Явления Облачность Т
(°С)
Тd
(°С)
f(%) Тe
(°С)
Pmin
(гПа)
dP
(гПа)
Po
(мм)
O2
(г/м3)
Тmin Tmax R s Состояние
почвы
15 27.04.17 290 (З) н/о    8/8 600 м кучево-дожд. 
[Cb cap]
+14.5 -3 30 +14  1029.6  0.8  760  291    +18.6       
18 27.04.17 320 (СЗ) н/о    ясно 
+10.1 +0.2 50 +9  1031.3  1.4  761  296    +18.6       
21 27.04.17 320 (СЗ) н/о    ясно 
+7.1 -0.7 58 +6  1032.4  761  299           
00 28.04.17 290 (З) н/о    6/6 600 м кучево-дожд. 
[Cb cap]
+5 -0.3 69 +3  1031.5  -1.1  761  301           
03 28.04.17 320 (СЗ) 20000 м    6/3 600 м кучево-дожд., средняя 
[Cb cap|Ac As]
+8.3 +2.3 66 +6  1032.3  1.1  761  297           
06 28.04.17 320 (СЗ) 20000 м    8/8 1000 м 
[Cu med, cong]
+12 +0.2 44 +11  1032.4  0.2  762  294  +4.5         
09 28.04.17 340 (С) 20000 м    10/10 600 м кучево-дожд. 
[Cb cap]
+14 -2.2 33 +13  1031.5  -0.8  761  292           
12 28.04.17 020 (С) 20000 м    9/9 600 м кучево-дожд. 
[Cb cap]
+15.1 -4.4 26 +15  1030.3  -1.1  760  291           
15 28.04.17 020 (С) н/о    9/9 600 м кучево-дожд. 
[Cb cap]
+13.1 -2.7 33 +14  1030.6  0.2  760  293    +16       
18 28.04.17 140 (ЮВ) н/о    3/0 средняя 
[Ac und]
+10.1 +2.7 60 +10  1030.7  -0.1  760  295    +16       
21 28.04.17 140 (ЮВ) н/о    3/0 средняя 
[Ac und]
+7.3 +1.9 69 +8  1030.8  760  298           
00 29.04.17 тихо ()   н/о    5/0 средняя 
[Ac As]
+6.3 +3 79 +6  1029.6  -1.4  759  299           
03 29.04.17 250 (З) 20000 м    10/0 средняя 
[Ac und]
+9.3 +4.6 72 +9  1028.2  -1  758  295           
06 29.04.17 050 (СВ) 20000 м    8/3 600 м средняя 
[Cu med, cong|Ac As]
+15 +2.5 43 +16  1028.3  0.4  759  289  +4.5         
09 29.04.17 320 (СЗ) 20000 м    10/10 600 м кучево-дожд. 
[Cb cap]
+16.9 -0.7 30 +17  1027.4  -0.8  758  288           
12 29.04.17 340 (С) 20000 м    6/6 600 м кучево-дожд. 
[Cb cap]
+18.8 -0.9 26 +19  1027.2  758  286           
15 29.04.17 070 (В) н/о    3/3 600 м кучево-дожд. 
[Cb cap]
+15.8 +0.4 35 +16  1028.3  0.8  759  289    +19.5       
18 29.04.17 тихо ()   н/о    ясно 
+8.9 +4.1 72 +9  1030.3  1.6  760  296    +19.5       
21 29.04.17 тихо ()   н/о    ясно 
+6.7 +4.4 85 +7  1030.8  0.4  760  298           
00 30.04.17 тихо ()   н/о    ясно 
+3.2 -0.6 76 +3  1031.5  0.4  761  303           
03 30.04.17 тихо ()   20000 м    ясно 
+11.2 +5.3 67 +11  1032.6  1.6  762  294           
06 30.04.17 тихо ()   20000 м    ясно 
+17.1 +2.3 37 +17  1032.9  0.7  762  289  +2.5         
09 30.04.17 тихо ()   20000 м    ясно 
+21.6 +6.2 37 +22  1031.8  -0.9  762  283           
12 30.04.17 тихо ()   20000 м    1/1 1000 м 
[Cu hum]
+22.5 +4.8 32 +23  1030.2  -1.5  761  282           
15 30.04.17 тихо ()   н/о    ясно 
+20.8 +4.5 34 +21  1029.3  -1  760  284    +23.5       
Время (UTC), дата Ветер
(°,м/с) 
Видим.   Явления Облачность Т
(°С)
Тd
(°С)
f(%) Тe
(°С)
Pmin
(гПа)
dP
(гПа)
Po
(мм)
O2
(г/м3)
Тmin Tmax R s Состояние
почвы

Для получения пояснительной информации подведите курсор к названию столбца.

ПОГОДА в Злихе - архив

Всё, что Вы хотите узнать о погоде в Злихе - удобно и подробно!

Выберите нужную дату (начиная с 1 января 2015* года) и нажмите кнопку "Найти".
Будут отображены архивные сводки погоды по пункту Злиха, начиная с указанной даты.


Отображать данные в формате CSV (для использования в таблицах Excel)


Внимание! Наш архив погоды предназначен исключительно для личного некоммерческого использования в познавательных целях. Если Вам необходимы официальные справки о состоянии погоды (для производственных, юридических, коммерческих и т.п. целей), обращайтесь в органы Росгидромета.

*Примечание: данная дата относится к архиву по метеостанциям СССР (Россия, СНГ, Балтия).
Архив по метеостанциям Зарубежной Европы и Азии (кроме Китая) хранится 10 дней, по другим регионам земного шара (Китай, Африка, Америка, Австралия, Океания) - 1 день.

Злиха - район местоположения метеостанции


Название, широта, долгота, высота метеостанции:
Злиха 45.2°ш. 67.1°д. 138 м над ур. моря [Казахстан]

Дополнительная информация

В oтличие oт бoльшинства пoгoдных сайтoв мы публикуем пoдрoбную метеoинфoрмацию в детальнoм прoфессиoнальнoм фoрмате.

Характеристики температуры и влажнoсти вoздуха измеряются на высoте 2 м в тени вдали oт зданий и деревьев.
Скoрoсть ветра измеряется на высoте 10 м (на урoвне рoста челoвека скoрoсть ветра ниже в 1.5-2 раза). Если метеoстанция нахoдится в гoрoде или в лесу, тo скoрoсть ветра занижена на 2-4 м/с пo сравнению с oткрытым местoм. Скoрoсть ветра над акватoриями крупных рек и oзёр, а также на вершинах хoлмoв на 2-5 м/с выше, чем в oбычных услoвиях.
Атмoсфернoе давление в разных тoчках местнoсти мoжет значительнo oтличаться oт давления на метеoстанции, в зависимoсти oт услoвий рельефа (при пoдъёме на 10 м давление пoнижается примернo на 1 мм рт.ст.).